Retour au catalogue

ONEWEB-0165

ActifCommunicationsPO
NORAD 48233·PAYLOAD·🇬🇧 United Kingdom

Lancé Apr 25, 2021 depuis Vostochny Cosmodrome

Loading…

Prochains Passages (prochaines 24 heures)

TLE

FraisSource: CelesTrak SupGP

Époque: Sep 14, 2026, 21:01 UTC

1 48233C 21031Z   26257.87584907  .00002925  00000+0  78979-2 0  2573
2 48233  87.8904 271.8255 0001637  83.7634 311.9894 13.14501078    12

Suivez ONEWEB-0165 en temps réel avec AllMySat

Download on the App Store